Regional Weather Roundup
Issued by NWS

Home | Current Version | Previous Version | Graphics & Text | Print | Product List | Glossary Off
Versions: 1 2 3 4 5 6 7 8 9 10 11 12 13 14 15 16 17 18 19 20 21 22 23 24 25 26 27 28 29 30 31 32 33 34 35 36 37 38 39 40 41 42 43 44 45 46 47 48 49 50

000
ASUS44 KFWD 291315
RWRTX
NORTH TEXAS HOURLY WEATHER ROUNDUP
NATIONAL WEATHER SERVICE FORT WORTH TX
800 AM CDT SAT APR 29 2017

NOTE: "FAIR" INDICATES FEW OR NO CLOUDS BELOW 12,000 FEET WITH NO
SIGNIFICANT WEATHER AND/OR OBSTRUCTIONS TO VISIBILITY.

TXZ118-119-291400-
DALLAS/FORT WORTH METROPLEX

CITY           SKY/WX    TMP DP  RH WIND       PRES   REMARKS
DFW AIRPORT    CLOUDY    79  72  79 S23G29    29.54R HAZE
DALLAS LOVE    CLOUDY    79  71  76 S17G29    29.55S HAZE
FTW MEACHAM    CLOUDY    79  73  82 S16G28    29.54R HAZE
DAL-EXECUTIVE  CLOUDY    78  72  81 S16G29    29.55R HAZE
FTW-ALLIANCE   CLOUDY    78  71  79 S21G31    29.53R HAZE
ARLINGTON      CLOUDY    78  71  79 S21G31    29.54R HAZE
GRAND PRAIRIE  CLOUDY    77  70  78 S15G28    29.56R
ADDISON        CLOUDY    77  70  78 S14G32    29.56R
MESQUITE       MOSUNNY   77  72  83 SE16G32   29.57S FOG
LANCASTER      CLOUDY    77  71  81 S22G30    29.57R HAZE
$$

TXZ091>094-102>105-117-120-121-131>134-291400-
NORTH CENTRAL TEXAS

CITY           SKY/WX    TMP DP  RH WIND       PRES   REMARKS
SHRMAN/DENISON CLOUDY    76  70  82 S24G32    29.57S HAZE
GAINESVILLE    CLOUDY    76  69  81 S17G24    29.57R HAZE
BOWIE          CLOUDY    77  69  76 S20G30    29.58R
BRIDGEPORT     CLOUDY    77  67  72 S13       29.59R HAZE
DECATUR        MOSUNNY   77  69  78 S18G32    29.55R HAZE
DENTON         CLOUDY    78  71  79 S22G36    29.55R HAZE
MCKINNEY       CLOUDY    77  73  87 S22G29    29.56R FOG
BONHAM         CLOUDY    75  70  83 SE18      29.58R HAZE
GREENVILLE     CLOUDY    79  72  78 SE16G24   29.59S HAZE
ROCKWALL       CLOUDY    77  73  87 S15G28    29.57S FOG
TERRELL        CLOUDY    78  71  79 S21       29.58S HAZE
WAXAHACHIE     CLOUDY    76  72  87 S21G28    29.57S FOG
CLEBURNE       PTSUNNY   75  75 100 S20G28    29.57S FOG
GRANBURY       CLOUDY    78  69  73 SE20G35   29.55S HAZE
$$

TXZ083>090-098>101-113>116-127>130-139>142-154-155-291400-
WESTERN NORTH TEXAS

CITY           SKY/WX    TMP DP  RH WIND       PRES   REMARKS
WICHITA FALLS  CLOUDY    55  49  80 NE23G32   29.56F
VERNON         CLOUDY    50  47  89 NW17      29.66R THUNDER
ABILENE        CLOUDY    71  66  84 S14       29.58S FOG
ABILENE-DYESS  CLOUDY    63  54  72 NW22G32   29.59R
GRAHAM         CLOUDY    75  67  76 SW8       29.55R
BRECKENRIDGE   CLOUDY    76  65  68 SW12G18   29.57R HAZE
CISCO          CLOUDY    73  66  78 S13G20    29.60R HAZE
RANGER         PTSUNNY   74  66  76 S18G28    29.58R HAZE
MINERAL WELLS  PTSUNNY   77  67  71 S23G32    29.53R HAZE
STEPHENVILLE   CLOUDY    75  67  77 S15G25    29.60R
COMANCHE       CLOUDY    74  67  78 S14G22    29.58R
BROWNWOOD      CLOUDY    73  66  78 S12G18    29.59R HAZE
COLEMAN        CLOUDY    73  64  74 S7        29.60R
$$

TXZ143>147-156>162-174-175-291400-
CENTRAL TEXAS

CITY           SKY/WX    TMP DP  RH WIND       PRES   REMARKS
WACO           CLOUDY    77  73  87 S18G29    29.57S FOG
WACO-TSTC      PTSUNNY   77  72  83 SE13G23   29.58S HAZE
WACO-MCGREGOR  MOSUNNY   77  73  87 S18G26    29.59R FOG
HILLSBORO      CLOUDY    78  73  85 S23G30    29.57F HAZE
CORSICANA      CLOUDY    79  73  82 S18       29.61S HAZE
MEXIA          CLOUDY    77  72  83 S17G26    29.60S
HEARNE         CLOUDY    78  76  94 SE13G23   29.63S
CAMERON        CLOUDY    79  73  81 S13G24    29.61S
TEMPLE         PTSUNNY   79  72  78 S24G35    29.60R
KILLEEN        CLOUDY    75  70  83 SE22G29   29.58S FOG
KILLEEN-SKYLRK CLOUDY    77  71  82 S20G29    29.60R
FORT HOOD      CLOUDY    75  70  83 S17G26    29.57R
GATESVILLE     CLOUDY    77  70  78 S16G28    29.61R HAZE
HAMILTON       CLOUDY    75  68  77 S20G30    29.59R HAZE
LAMPASAS       PTSUNNY   76  70  82 S16G23    29.59S
$$

TXZ095>097-106>112-122>126-135>138-148>153-164>167-291400-
EAST TEXAS

CITY           SKY/WX    TMP DP  RH WIND       PRES   REMARKS
PARIS          CLOUDY    77  72  83 S18G25    29.62R
SULPHUR SPRNGS CLOUDY    79  72  79 S15G26    29.63R
MOUNT PLEASANT PTSUNNY   77  70  77 SE17G28   29.66S
GILMER         CLOUDY    77  71  82 SE15G25   29.65F
MINEOLA        CLOUDY    79  72  78 SE14G28   29.62S
TYLER          CLOUDY    78  73  84 S18G31    29.64S
LONGVIEW       PTSUNNY   77  73  87 S21G26    29.67R
MARSHALL       CLOUDY    75  70  83 S9G17     29.71S
ATHENS         CLOUDY    77  70  78 S22       29.61S
PALESTINE      CLOUDY    78  73  87 SE14G20   29.65R HAZE
JACKSONVILLE   CLOUDY    76  73  90 S18G26    29.68R FOG
HENDERSON      CLOUDY    77  71  81 S12G20    29.69S
CENTER         CLOUDY    81  76  83 SE14G22   29.72R
NACOGDOCHES    CLOUDY    77  72  83 S15G25    29.67R
LUFKIN         CLOUDY    77  72  84 SE21G28   29.67F
$$

SUPPLEMENTAL OBSERVATIONS (CENTRAL)

CITY           SKY/WX    TMP DP  RH WIND       PRES   REMARKS
DENISON DAM      N/A     79  72  78 S14         N/A
CADDO GRASSLND   N/A     77  70  78 S13G22      N/A
PAT MAYSE LAKE   N/A     77  73  88 SE22        N/A
GREENVILLE       N/A     79  72  78 S14G25      N/A
CEDAR HILL       N/A     77  70  78 S16G30      N/A
ATHENS           N/A     79  70  73 S20G30      N/A
LAKE LIMESTONE   N/A     79  72  78 S13G24      N/A
MCGREGOR         N/A     77  70  78 S23G30      N/A
TEMPLE           N/A     79  72  78 S20G26      N/A
$$

SUPPLEMENTAL OBSERVATIONS (WEST)

CITY           SKY/WX    TMP DP  RH WIND       PRES   REMARKS
MILLERS CREEK    N/A     52  48  87 N13G22      N/A
POSSUM KINGDOM   N/A     75  66  73 S9G20       N/A
LBJ GRASSLAND    N/A     77  70  78 S15G30      N/A
GRANBURY         N/A     79  70  73 S22G29      N/A
COMANCHE         N/A     73  64  73 S15G24      N/A
HAMBY            N/A     72  63  73 S12         N/A
IVIE RESERVOIR   N/A     73  64  73 SW6         N/A
COLORADO BEND    N/A     75  68  78 SW13G26     N/A
$$

SUPPLEMENTAL OBSERVATIONS (EAST)

CITY           SKY/WX    TMP DP  RH WIND       PRES   REMARKS
CLARKSVILLE      N/A     77  72  83 S12G23      N/A
CADDO LAKE       N/A     79  72  78 SE7         N/A
GILMER           N/A     79  72  78 S13G24      N/A
HENDERSON        N/A     77  72  83 S9G17       N/A
LUFKIN           N/A     79  73  83 MISG        N/A
N SABINE NF      N/A     77  72  83 MISG        N/A
S SABINE NF      N/A     79  73  83 S6G15       N/A
$$

SUPPLEMENTAL OBSERVATIONS ARE A COLLECTION OF AUTOMATED INSTRUMENTS
THAT ARE MAINTAINED BY A VARIETY OF FEDERAL AND STATE AGENCIES.
CERTAIN ELEMENTS...SUCH AS HUMIDITY VALUES AND SUSTAINED WIND
SPEEDS...MAY BE APPROXIMATED.





USA.gov is the U.S. government's official web portal to all federal, state and local government web resources and services.